www.pogodaiklimat.ru

Погода и климат >> Архив погоды >> Германия >> Лар


ПОГОДА в Ларе

  • Прогноз погоды в Ларе
  • Монитор погоды в Ларе

АРХИВ ПОГОДЫ в Ларе

Время (UTC), дата Ветер
(напр.,м/с)
 
Видим.   Явления Облачность Т
(С)
Тd
(С)
f
(%)
Тe
(С)
Тes
(С)
Комфортность P
(гПа)
Po
(гПа)
Тmin
(С)
Tmax
(С)
R
(мм)
R24
(мм)
S
(см)
01 10.06 Ю 2 3900 м слаб. морось {дождь} 10/10 150 м
[]
+15.5 +15.0 97 +15 +15 1016.5 998.0
02 10.06 Ю 3 10 км в посл. час дождь {морось} 10/10 90 м
[]
+15.6 +15.0 96 +15 +15 1016.6 998.1
03 10.06 Ю 1 28 км в посл. час дождь {морось} 10/0 2000 м
[]
+15.4 +14.3 93 +16 +16 1015.3 996.8 0.5
04 10.06 Ю 2 6000 м слаб. дождь 9/9 1500 м
[]
+14.8 +14.3 97 +14 +14 1015.2 996.6
05 10.06 З 2 8000 м слаб. дождь {морось} 9/9 240 м
[]
+15.3 +14.5 95 +15 +15 1015.8 997.3
06 10.06 Ю 4 7000 м слаб. дождь {морось} 10/10 1000 м
[]
+15.4 +14.3 93 +14 +14 1016.7 998.1 +14.5 +19.5 5
07 10.06 ЮВ 2 30 км слаб. дождь {морось} 10/0 2000 м
[]
+16.4 +14.3 87 +16 +20 1015.8 997.3
08 10.06 ЮВ 2 30 км в посл. час дождь 10/0
[]
+17.2 +15.2 88 +18 +23 1015.4 997.0
09 10.06 В 1 30 км в посл. час дождь {морось} 10/10 420 м
[]
+19.4 +14.2 72 +22 +22 комфорт 1014.7 996.4 0.6
10 10.06 С 3 11 км слаб. дождь {морось} 10/0 2000 м
[]
+18.0 +14.6 81 +18 +25 1013.0 994.7
11 10.06 З 1 13 км слаб. дождь {морось} 10/10 1170 м
[]
+18.7 +14.9 79 +21 +21 комфорт 1014.1 995.8
12 10.06 З 3 30 км в посл. час дождь {морось} 9/9 360 м
[]
+18.1 +15.0 82 +18 +20 1014.2 995.9 0.6
13 10.06 ЮЗ 3 8000 м слаб. дождь {морось} 9/9 600 м
[]
+17.3 +15.4 89 +17 +19 1013.9 995.5
14 10.06 З 3 18 км слаб. дождь {морось} 10/10 420 м
[]
+17.6 +15.6 88 +18 +18 1013.4 995.1
15 10.06 ЮЗ 3 17 км слаб. дождь {морось} 9/9 540 м
[]
+17.0 +15.3 90 +17 +18 1013.3 994.9 0.9
16 10.06 З 2 14 км в посл. час дождь {морось} 9/9 300 м
[]
+17.2 +15.9 92 +18 +18 1012.6 994.2
17 10.06 З 4 11 км слаб. дождь {морось} 9/9 570 м
[]
+16.3 +14.5 89 +16 +16 1012.9 994.5
18 10.06 Ю 2 30 км в посл. час дождь {морось} 10/10 600 м
[]
+16.6 +14.9 90 +17 +17 1012.6 994.2 +15.3 +19.8 1
19 10.06 Ю 2 7000 м слаб. дождь {морось} 9/9 700 м
[]
+16.1 +14.9 93 +16 +16 1012.9 994.5
20 10.06 Ю 3-4
{4}
7000 м слаб. дождь {морось} 10/10 1140 м
[]
+15.8 +14.6 93 +15 +15 1013.1 994.6
21 10.06 Ю 3 9000 м слаб. дождь {морось} 10/10 1230 м
[]
+15.0 +14.0 94 +14 +14 1013.2 994.7 2
22 10.06 Ю 3 7000 м слаб. дождь {морось} 9/9 1200 м
[]
+15.1 +14.2 94 +14 +14 1013.3 994.8
23 10.06 Ю 2-3
{6}
4100 м слаб. дождь 10/0 2000 м
[]
+14.5 +13.7 95 +14 +14 1012.8 994.3
00 11.06 ЮЗ 4 5000 м слаб. дождь {морось} 10/10 300 м
[]
+14.4 +13.9 97 +13 +13 1013.4 994.8 3
01 11.06 ЮЗ 1 4300 м слаб. дождь 9/9 450 м
[]
+13.6 +13.0 96 +14 +14 1013.3 994.7
02 11.06 ЮВ 2 13 км слаб. дождь 10/10 570 м
[]
+13.3 +12.5 95 +12 +12 1013.3 994.7
03 11.06 ЮЗ 1 22 км слаб. дождь {морось} 9/9 600 м
[]
+13.5 +12.6 94 +14 +14 1013.4 994.8 5
04 11.06 штиль 0 27 км в посл. час дождь {морось} 10/10 300 м
[]
+12.9 +12.2 96 +12 +12 1013.0 994.3
05 11.06 СВ 3 12 км слаб. морось {дождь} 10/10 150 м
[]
+12.9 +12.1 95 +11 +11 1012.7 994.0
06 11.06 СВ 4 30 км в посл. час морось {дождь} 10/10 1000 м
[]
+13.4 +11.7 89 +12 +12 1012.1 993.5 +12.8 +16.6 12
07 11.06 СВ 4 25 км 9/9 1410 м
[]
+14.2 +11.2 82 +13 +13 1012.1 993.5
08 11.06 СВ 3 30 км 10/10 450 м
[]
+15.1 +11.7 80 +14 +14 1011.8 993.3
09 11.06 С 3 40 км 10/10 500 м
[]
+15.9 +11.3 74 +15 +15 1011.9 993.4
10 11.06 С 2 30 км 10/10 500 м
[]
+16.7 +11.9 73 +17 +17 1011.7 993.3
11 11.06 С 3 45 км 9/9 600 м
[]
+16.9 +12.3 74 +17 +18 1011.4 993.0
12 11.06 СВ 3 45 км 10/10 1300 м
[]
+16.7 +12.3 75 +16 +16 1011.5 993.1
13 11.06 СВ 1 60 км 10/10 1140 м
[]
+17.2 +12.3 73 +18 +18 1011.6 993.2
14 11.06 СВ 1-2
{3}
50 км 10/10 1320 м
[]
+17.6 +12.3 71 +19 +19 1011.5 993.2
15 11.06 В 2 60 км 10/10 800 м
[]
+18.2 +13.0 72 +19 +19 1011.3 993.0
16 11.06 СВ 1 70 км 9/9 1110 м
[]
+18.4 +11.5 64 +20 +21 1011.0 992.7
17 11.06 СЗ 1 70 км 10/10 1110 м
[]
+18.2 +11.3 64 +20 +20 1011.1 992.8
18 11.06 С 1 50 км 10/10 1000 м
[]
+18.1 +12.2 68 +19 +19 1011.5 993.2 +13.4 +19.0
19 11.06 СЗ 2 50 км 10/10 800 м
[]
+17.6 +12.6 72 +18 +18 1011.1 992.8
20 11.06 СЗ 1 45 км 10/10 930 м
[]
+17.0 +13.0 77 +18 +18 1011.1 992.7
21 11.06 штиль 0 30 км 10/10 870 м
[]
+16.6 +13.0 79 +17 +17 1010.6 992.2
22 11.06 З 1-2
{2}
35 км 10/0
[]
+15.6 +13.3 86 +16 +16 1010.4 992.0
23 11.06 Ю 2 28 км 10/10 960 м
[]
+15.5 +13.7 89 +15 +15 1010.6 992.2
00 12.06 ЮЗ 1 21 км 10/10 600 м
[]
+15.4 +13.7 90 +16 +16 1010.2 991.8
01 12.06 штиль 0 21 км в посл. час дождь 10/10 720 м
[]
+15.2 +13.5 90 +15 +15 1009.9 991.5
02 12.06 СВ 2-2
{2}
12 км в посл. час дождь {морось} 10/10 800 м
[]
+14.9 +13.9 94 +15 +15 1009.4 990.9
03 12.06 СВ 3 17 км в посл. час дождь {морось} 10/10 840 м
[]
+14.6 +12.9 90 +14 +14 1009.0 990.5 0.1
04 12.06 СВ 3-5
{5}
23 км слаб. морось {дождь} 9/9 1000 м
[]
+14.1 +12.3 89 +13 +13 1009.1 990.6
05 12.06 штиль 0 5000 м слаб. морось с дождем 10/10 630 м
[]
+13.9 +12.5 91 +13 +13 1009.5 991.0
06 12.06 ЮЗ 2 2200 м слаб. морось с дождем 10/10 100 м
[]
+13.6 +13.0 96 +13 +13 1010.4 991.8 +13.6 +18.1 1
07 12.06 Ю 3 2300 м дождь 10/10 210 м
[]
+13.4 +12.5 94 +12 +12 1011.1 992.5
08 12.06 Ю 5 11 км морось {дождь} 10/10 210 м
[]
+13.4 +12.4 94 +11 +11 1012.2 993.6
09 12.06 Ю 3 50 км в посл. час дождь {морось} 10/10 360 м
[]
+14.7 +11.2 80 +14 +14 1011.6 993.1 3
10 12.06 ЮЗ 4 30 км в посл. час дождь 10/10 450 м
[]
+16.0 +12.0 77 +15 +15 1012.3 993.8
11 12.06 ЮЗ 3 45 км 9/9 870 м
[]
+16.2 +10.6 69 +16 +17 1012.6 994.1
12 12.06 ЮЗ 3 35 км {дождь, морось} 3/3 900 м
[]
+18.4 +10.4 60 +19 +29 1012.3 994.0 0.1
13 12.06 ЮЗ 2 50 км 9/9 1020 м
[]
+18.1 +10.5 61 +19 +20 1012.5 994.2
14 12.06 ЮЗ 3 70 км 8/8 1200 м
[]
+19.3 +10.3 56 +21 +23 комфорт 1012.1 993.8
15 12.06 Ю 3 35 км 3/3 1500 м
[]
+20.3 +10.3 53 +22 +28 комфорт 1011.8 993.6
16 12.06 ЮЗ 2-3
{6}
40 км ясно +20.8 +7.9 43 +23 +29 комфорт 1011.6 993.4
17 12.06 ЮЗ 2-3
{6}
50 км 3/0
[]
+21.2 +8.1 43 +22 +25 комфорт 1011.5 993.4
18 12.06 СЗ 1 70 км 6/0
[]
+20.4 +9.3 49 +23 +24 комфорт 1011.7 993.5 +13.1 +21.5
19 12.06 З 2 70 км 9/0
[]
+19.6 +10.8 57 +21 +21 комфорт 1011.9 993.7
20 12.06 Ю 1 70 км 9/0
[]
+16.6 +12.8 78 +17 +17 1012.5 994.1
21 12.06 СЗ 1 70 км 10/0 2000 м
[]
+16.3 +11.7 74 +17 +17 1012.8 994.4
22 12.06 ЮВ 2 70 км 10/0 2000 м
[]
+15.8 +11.7 77 +16 +16 1013.8 995.3
23 12.06 ЮВ 3 40 км слаб. дождь 10/10 1500 м
[]
+15.4 +12.1 81 +15 +15 1013.8 995.3
00 13.06 ЮВ 1 40 км слаб. дождь {морось} 10/10 1500 м
[]
+14.7 +12.8 88 +15 +15 1014.1 995.5 0.4
01 13.06 ЮВ 2 70 км в посл. час дождь {морось} 10/0 2000 м
[]
+14.5 +12.3 87 +14 +14 1014.4 995.8
02 13.06 Ю 1 35 км слаб. дождь 10/10 1500 м
[]
+14.4 +12.1 86 +15 +15 1014.9 996.3
03 13.06 ЮВ 2 45 км в посл. час дождь {морось} 9/0
[]
+13.0 +12.0 94 +12 +12 1015.0 996.3 0.0
04 13.06 ЮВ 2-3
{3}
30 км 4/0
[]
+12.5 +11.8 95 +11 +12 1015.2 996.5
05 13.06 ЮВ 2-2
{2}
50 км ясно +12.8 +11.4 91 +12 +13 1015.3 996.6
06 13.06 ЮВ 1 55 км {дождь, морось} 1/0
[]
+13.5 +11.9 90 +14 +17 1015.6 996.9 +12.4 +21.3 0.4
07 13.06 ЮЗ 1-2
{2}
60 км 1/0
[]
+15.9 +11.4 75 +17 +24 1015.4 996.9
08 13.06 Ю 3-4
{4}
29 км ясно +18.5 +10.8 61 +19 +27 1015.3 996.9
09 13.06 Ю 3 26 км ясно +19.7 +10.7 56 +21 +33 комфорт 1015.2 996.9
10 13.06 ЮЗ 4-5
{8}
21 км ясно +20.9 +10.3 51 +23 +34 комфорт 1014.9 996.7
11 13.06 ЮЗ 5-9
{9}
13 км 1/1 1500 м
[]
+21.8 +8.7 43 +23 +32 комфорт 1014.7 996.5
12 13.06 Ю 6-9
{11}
8000 м ясно +23.0 +5.9 33 +23 +31 комфорт 1014.3 996.2
13 13.06 ЮЗ 6-8
{10}
13 км ясно +23.4 +6.8 34 +24 +31 комфорт 1013.9 995.8
14 13.06 ЮЗ 5-8
{9}
23 км ясно +24.5 +6.8 32 +25 +32 комфорт 1013.6 995.6
15 13.06 ЮЗ 4-6
{10}
23 км ясно +24.5 +5.7 30 +24 +31 комфорт 1013.6 995.6
16 13.06 Ю 4-6
{7}
27 км ясно +24.4 +5.0 29 +24 +28 комфорт 1013.7 995.7
17 13.06 Ю 4-6
{6}
45 км ясно +24.5 +5.5 29 +24 +26 комфорт 1013.2 995.2
18 13.06 Ю 2 65 км ясно +23.6 +7.5 36 +24 +25 комфорт 1013.3 995.3 +13.5 +25.1
19 13.06 ЮВ 2-2
{4}
70 км ясно +21.8 +9.4 45 +23 +23 комфорт 1013.5 995.4
20 13.06 В 1-2
{3}
70 км ясно +18.3 +9.6 57 +20 +20 1014.3 995.9
21 13.06 СЗ 1-1
{4}
70 км ясно +15.9 +9.4 65 +17 +17 1014.7 996.2
22 13.06 В 2-4
{4}
70 км ясно +19.0 +8.6 51 +20 +20 1014.6 996.3
23 13.06 Ю 4-5
{5}
70 км 3/0
[]
+16.8 +9.0 60 +16 +16 1014.9 996.4
00 14.06 Ю 1 70 км 6/0
[]
+13.6 +9.4 76 +14 +14 1015.1 996.4
01 14.06 Ю 2 70 км 6/0
[]
+15.1 +8.7 66 +15 +15 1014.9 996.3
02 14.06 Ю 2 65 км 8/0
[]
+13.1 +8.8 75 +12 +12 1014.6 995.9
03 14.06 Ю 1 60 км 5/0
[]
+11.6 +8.5 81 +11 +11 1014.6 995.8
04 14.06 ЮЗ 2 50 км 9/0
[]
+11.5 +8.4 81 +10 +10 1014.4 995.6
05 14.06 ЮЗ 3 60 км 10/0
[]
+14.3 +9.7 74 +13 +14 1014.9 996.3
06 14.06 З 2 65 км 10/0
[]
+15.7 +10.9 73 +16 +17 1014.5 996.0 +11.0 +23.8
07 14.06 Ю 2 70 км 10/0
[]
+16.7 +11.0 69 +17 +20 1015.9 997.4
08 14.06 З 2 55 км 9/0
[]
+19.0 +11.6 62 +20 +26 1015.4 997.1
09 14.06 З 2 50 км в посл. час дождь 10/0 2000 м
[]
+18.2 +12.9 71 +19 +26 1016.5 998.1 0.0
10 14.06 ЮЗ 3-4
{5}
18 км слаб. дождь 10/0
[]
+17.3 +13.9 80 +17 +24 1017.3 998.9
11 14.06 Ю 2 40 км в посл. час дождь {морось} 10/0
[]
+19.9 +14.5 71 +23 +32 комфорт 1016.9 998.6
12 14.06 ЮЗ 1 45 км {дождь, морось} 10/0
[]
+21.8 +14.2 62 +25 +35 комфорт 1016.5 998.3 0.6
13 14.06 З 3 50 км слаб. дождь 10/0 2000 м
[]
+20.9 +14.8 68 +24 +31 комфорт 1016.3 998.1
14 14.06 З 1-2
{3}
26 км в посл. час дождь {морось} 10/0
[]
+20.1 +15.9 77 +24 +32 комфорт 1015.5 997.3
15 14.06 СЗ 2 16 км {дождь, морось} 10/0
[]
+20.5 +15.9 75 +24 +29 комфорт 1014.7 996.5 0.0
16 14.06 С 2 22 км в посл. час дождь 10/0
[]
+21.1 +15.6 71 +24 +27 комфорт 1013.6 995.5
17 14.06 С 3-3
{3}
25 км 10/0
[]
+21.7 +16.6 73 +26 +27 душно 1012.7 994.6
18 14.06 С 3 35 км {дождь, морось} 10/0
[]
+20.7 +16.7 78 +25 +25 комфорт 1011.7 993.6 +15.7 +22.1 0.0
19 14.06 С 3-4
{4}
30 км 4/0
[]
+19.7 +16.4 81 +22 +22 комфорт 1011.0 992.8
20 14.06 С 4 15 км 9/0
[]
+17.7 +15.5 87 +17 +17 1011.4 993.1
21 14.06 С 2 22 км 10/0
[]
+17.3 +14.8 85 +18 +18 1011.7 993.4
22 14.06 С 2 15 км 10/0
[]
+16.4 +15.0 91 +16 +16 1010.4 992.0
23 14.06 С 2 24 км 6/0
[]
+16.4 +14.4 88 +16 +16 1009.6 991.2
00 15.06 СВ 3 13 км 10/0
[]
+15.4 +14.6 95 +15 +15 1009.0 990.6
01 15.06 З 2-3
{3}
16 км 9/0
[]
+15.7 +14.5 93 +16 +16 1008.7 990.3
02 15.06 ЮЗ 5 15 км 8/8 450 м
[]
+16.1 +14.6 91 +15 +15 1010.8 992.4
03 15.06 З 5 8000 м 9/0
[]
+16.1 +14.6 91 +15 +15 1012.8 994.4
04 15.06 Ю 4 22 км 10/0
[]
+16.8 +14.5 86 +16 +16 1013.3 994.9
05 15.06 Ю 3 35 км в посл. час дождь 10/0 2000 м
[]
+17.5 +14.8 84 +18 +18 1013.8 995.4
06 15.06 ЮЗ 2 28 км {дождь} 10/10 1000 м
[]
+18.1 +14.8 81 +19 +19 1014.2 995.9 +15.1 +20.7 0.0
07 15.06 ЮЗ 3 19 км 8/8 1230 м
[]
+19.6 +14.8 74 +22 +23 комфорт 1015.0 996.7
08 15.06 ЮЗ 5 18 км 9/9 720 м
[]
+20.7 +14.9 69 +24 +24 комфорт 1015.3 997.1
09 15.06 ЮЗ 5 30 км 9/9 750 м
[]
+19.9 +14.7 72 +22 +23 комфорт 1016.3 998.0
10 15.06 ЮЗ 4 21 км 9/9 800 м
[]
+21.5 +14.8 66 +25 +26 комфорт 1016.6 998.4
11 15.06 З 2 35 км 10/10 1140 м
[]
+21.5 +12.9 58 +24 +24 комфорт 1016.7 998.5
12 15.06 Ю 3 40 км 9/9 1300 м
[]
+22.4 +15.8 66 +26 +28 жарко 1016.8 998.7
13 15.06 ЮЗ 2 45 км 9/9 1410 м
[]
+22.6 +13.7 57 +26 +27 жарко 1016.4 998.3
14 15.06 С 2 40 км 9/9 1140 м
[]
+23.0 +13.3 54 +26 +27 жарко 1016.1 998.0
15 15.06 СВ 2 27 км 10/0
[]
+23.3 +11.9 49 +26 +31 жарко 1015.9 997.8
16 15.06 СВ 3 24 км 6/6 1470 м
[]
+23.5 +13.8 54 +26 +28 жарко 1015.1 997.1
17 15.06 С 3 45 км 10/10 1500 м
[]
+23.1 +13.1 53 +26 +26 жарко 1015.2 997.1
18 15.06 СВ 3 70 км 10/10 1500 м
[]
+21.2 +13.9 63 +24 +24 комфорт 1015.4 997.2 +18.0 +24.0
19 15.06 В 1 50 км 10/10 1500 м
[]
+20.8 +14.2 66 +25 +25 комфорт 1015.5 997.3
20 15.06 Ю 1 30 км слаб. дождь 10/10 1500 м
[]
+20.1 +14.3 69 +23 +23 комфорт 1016.4 998.1
21 15.06 З 5 4400 м дождь 9/9 210 м
[]
+16.7 +15.6 93 +16 +16 1018.5 1000.0 1
22 15.06 ЮЗ 3-4
{7}
4800 м слаб. дождь 10/0
[]
+16.0 +15.4 96 +15 +15 1019.4 1000.8
23 15.06 Ю 2-3
{5}
8000 м слаб. дождь 9/0
[]
+15.8 +15.2 96 +16 +16 1020.0 1001.4
00 16.06 Ю 2 15 км слаб. дождь 10/10 300 м
[]
+15.7 +14.7 94 +16 +16 1020.4 1001.8 7
01 16.06 Ю 1 10 км слаб. дождь {морось} 9/9 1110 м
[]
+15.8 +14.9 94 +16 +16 1020.5 1001.9
02 16.06 Ю 2-3
{3}
5000 м слаб. дождь {морось} 10/10 1170 м
[]
+15.6 +14.7 94 +15 +15 1020.6 1002.0
03 16.06 ЮВ 1 4500 м слаб. дождь {морось} 10/10 1440 м
[]
+15.3 +14.8 97 +16 +16 1020.9 1002.3 2
04 16.06 ЮВ 1 6000 м слаб. дождь 10/10 270 м
[]
+15.0 +14.5 97 +15 +15 1021.3 1002.6
05 16.06 В 1 8000 м в посл. час дождь {морось} 9/0
[]
+15.1 +14.4 96 +16 +16 1021.5 1002.8
06 16.06 ЮВ 1 29 км {дождь, морось} 10/0
[]
+16.8 +14.0 84 +18 +20 1021.8 1003.2 +14.8 +21.3 11
07 16.06 Ю 1 30 км 10/10 400 м
[]
+16.9 +14.0 83 +18 +18 1022.1 1003.5
08 16.06 ЮЗ 2 35 км 10/10 540 м
[]
+17.9 +13.1 73 +18 +18 1022.4 1003.9
09 16.06 Ю 2 35 км 8/8 630 м
[]
+19.0 +13.0 68 +21 +23 комфорт 1022.4 1004.0
10 16.06 Ю 2-3
{5}
30 км 1/1 840 м
[]
+20.3 +12.0 59 +23 +38 комфорт 1022.4 1004.0
11 16.06 З 2-4
{5}
18 км 4/0 2000 м
[]
+20.9 +12.5 59 +24 +38 комфорт 1022.2 1003.9
12 16.06 З 3 30 км 9/9 1200 м
[]
+21.5 +11.9 54 +24 +25 комфорт 1021.9 1003.6
13 16.06 Ю 2 30 км 9/9 1170 м
[]
+21.2 +12.6 58 +23 +25 комфорт 1021.7 1003.4
14 16.06 СВ 2 35 км 6/6 1140 м
[]
+21.3 +12.4 57 +24 +29 комфорт 1021.6 1003.3
15 16.06 СВ 2-3
{7}
25 км ясно +22.3 +11.6 51 +25 +34 комфорт 1021.0 1002.8
16 16.06 С 1-2
{3}
50 км ясно +22.7 +10.9 47 +25 +32 комфорт 1020.8 1002.6
17 16.06 СЗ 2-3
{3}
35 км 3/3 1440 м
[]
+23.0 +12.0 50 +26 +28 жарко 1020.7 1002.5
18 16.06 СВ 2 30 км ясно +21.5 +12.4 56 +24 +25 комфорт 1020.8 1002.5 +16.2 +23.4
19 16.06 СВ 2-3
{4}
45 км ясно +20.1 +13.0 64 +23 +23 комфорт 1020.8 1002.5
20 16.06 СВ 1-2
{3}
40 км ясно +18.0 +13.6 75 +19 +19 1021.1 1002.6
21 16.06 штиль 0 28 км 4/0
[]
+15.9 +13.6 86 +16 +16 1021.3 1002.7
22 16.06 СВ 1-1
{2}
24 км ясно +14.5 +13.0 91 +15 +15 1021.5 1002.8
23 16.06 штиль 0 26 км 6/6 1500 м
[]
+14.7 +12.7 88 +14 +14 1021.3 1002.6
00 17.06 С 1 12 км 3/3 1500 м
[]
+13.1 +12.1 94 +13 +13 1021.2 1002.4

 

Местоположение метеостанции Лар (Германия): широта 48.37 долгота 7.83 высота над уровнем моря 157 м.

В архиве по умолчанию представлена погода в Ларе за последнюю неделю. Архивные данные за месяц целиком и за предыдущие месяцы, начиная с января 2011 года, Вы можете получить, выбрав интересующий диапазон дат из раскрывающегося списка и нажав кнопку "Ввод!".


*Определитесь, кто Вы:
робот инопланетянин человек

Внимание! Время в таблицах - всемирное. Для получения местного времени необходимо прибавить поправку, которая равна 1 ч.

Смотрите также архив погоды в соседних городах и на ближайших метеорологических станциях:

Погода в Страсбурге (Франция) (25 км)
Погода во Фрайбурге (Германия) (41 км)
Погода в Фройденштадте (Германия) (44 км)
Погода в Фельдберге (Германия) (56 км)
Погода в Мененгейме (Франция) (59 км)
Погода на Клиппенеке (Германия) (74 км)
Погода в Райнштеттене (Германия) (76 км)
Погода в Мёлине (Швейцария) (88 км)
Погода в Халлау (Швейцария) (88 км)
Погода в Евроаэропорту (Франция) (89 км)

Пояснения к столбцам:

Ветер - указаны скорость ветра в м/с - средняя за 10 мин, порывы в срок и между сроками (в фигурных скобках) и направление, откуда дует ветер: С - северный, СВ - северо-восточный, В - восточный, ЮВ - юго-восточный, Ю - южный, ЮЗ - юго-западный, З - западный, СЗ - северо-западный.
Видимость - горизонтальная дальность видимости в метрах или километрах. При видимости от 1 до 10 км при отсутствии осадков обычно наблюдается дымка, при ухудшении видимости до 1 км и менее - туман. В сухую погоду видимость может ухудшаться дымом, пылью или мглою.
Явления - указаны атмосферные явления, наблюдавшиеся в срок или в последний час перед сроком; фигурными скобками обозначены явления, наблюдавшиеся между сроками (за 1-3 часа до срока); квадратными скобками обозначены град или гололедные отложения с указанием их диаметра в мм.
Облачность - указаны через наклонную черту общая и нижняя облачность в баллах и высота нижней границы облаков в метрах; квадратными скобками обозначены формы облаков: Ci - перистые, Cs - перисто-слоистые, Cc - перисто-кучевые, Ac - высококучевые, As - высокослоистые, Sc - слоисто-кучевые, Ns - слоисто-дождевые, Cu - кучевые, Cb - кучево-дождевые. Подробнее классификацию облаков см. в Атласе облаков (PDF).
T - Температура воздуха - температура, измеренная на высоте 2 м над землей.
Td - Температура точки росы - температура, при понижении до которой содержащийся в воздухе водяной пар достигнет насыщения.
f - Относительная влажность воздуха - влажноcть воздуха, измеренная на высоте 2 м над землей.
Te - Эффективная температура - температура, которую ощущает одетый по сезону человек в тени. Характеристика душности погоды. При расчете учитывается влияние влажности воздуха и скорости ветра на теплоощущения человека.
Tes - Эффективная температура на солнце - температура, которую ощущает человек, с поправкой на солнечный нагрев. Характеристика знойности погоды. Зависит от высоты солнца над горизонтом, облачности и скорости ветра. Ночью, в пасмурную погоду, а также при ветре 12 м/с и более поправка равна нулю.
P - Атмосферное давление - приведенное к уровню моря атмосферное давление.
Po - Атмосферное давление - измеренное на уровне метеостанции атмосферное давление.
Tmin - Минимальная температура - минимум температуры воздуха на высоте 2 м над землей.
Tmax - Максимальная температура - максимум температуры воздуха на высоте 2 м над землей.
R - Количество осадков - Количество выпавших осадков за период времени, мм. При наведении курсора мыши на число - период времени, за который выпало указанное количество осадков.
R24 - Количество осадков - Количество выпавших осадков за 24 часа, мм.
S - Снежный покров - Высота снежного покрова, см. При наведении курсора мыши на число - состояние снежного покрова и степень покрытия местности в баллах.